Location: Austin
(30.3000°N, 97.7500°W)
Time: 13:28:15
(UTC-05:00)

SL-24 R/B - Pass Details

Date: 08 April 2026
Orbit: 616 x 1342 km, 97.9° (Epoch: 11 April)

Event Time Altitude Azimuth Distance (km) Brightness Sun altitude
Rises 21:43:03 0° 10° (N) 3,496 8.1 -23.2°
Reaches altitude 10° 21:45:38 10° 10° (N) 2,445 7.3 -23.8°
Maximum altitude 21:50:57 83° 283° (WNW) 743 4.4 -24.8°
Enters shadow 21:52:41 39° 199° (SSW) 1,046 5.1 -25.1°
